CZ-6A DEB, 61834

Orbit data source: Space-Track

CZ-6A DEB, 61834 is space debris in LEO originally from a launch on Tue, 06 Aug 2024 UTC launched from the Taiyaun Space Center, China (TSC). Debris objects in space refer to the collection of defunct objects orbiting the Earth. Examples of debris include non-operational satellites, rocket bodies, and fragments generated from explosions, collisions, or faulty payload assembly.

Loading next visibility...
Identifier
61834, 2024-140ADA
Orbit
LEO
Country
Flag of CNCN / PRC
Related business
Manufacturer
SAST
Mission
Spacecraft
Bus & Motor
Unknown
Mass
Unknown
Launch date (UTC)
2024-08-06 (2 years ago)
Launch vehicle
Unknown
Launch site
Taiyaun Space Center, China (TSC)
Object type
Payload
Rocket body
Debris
Shape & HBR
Unknown shape, 0.1 m
Radar Cross Section
Medium (>0.1 m² and <1 m²)

Expand to show TLE details & history
Last TLE update: 1 day ago

TLE from 1 day ago
0 CZ-6A DEB
1 61834U 24140ADA 26170.74262686  .00001866  00000-0  85475-3 0  9993
2 61834  89.0033 274.8647 0059324 187.5594 172.4709 14.20068557 90790
Epoch: 2026-06-19T17:49Z
TLE epoch observation values (Epoch: 2026-06-19T17:49:22.960Z)
Latitude
0.00002°
Longitude
99.5518°
Altitude
870.552 km
Speed
7.395 km/s
True Right ascension
18h 19m 27s
True Declination
0° 00' 00"
Sunlit
Object was in full shadow at epoch
Visualization orbit readout
Latitude
Unknown
Longitude
Unknown
Altitude
Unknown
Speed
Unknown
Apparent Right ascension
Unknown
Apparent Declination
Unknown
Sunlit
N/A
Visualization observer readout
Local Sidereal Time
07:23:48
Azimuth
Unknown
Elevation
Unknown
Doppler factor
Unknown
Orbital elements
Apogee altitude
864.786 km
Perigee altitude
779.357 km
Semi-major axis
7,200.209 km
Eccentricity
0.00593
Inclination
89.0033°
RAAN
274.8647°
Arg. of periapsis
187.5594°
True anomaly
172.55932°
Mean anomaly
172.4709°
Eccentric anomaly
172.51518°
Mean motion
3.55243 °/min
Orbital period
101.34 mins
BSTAR
0.00085475
Loading maneuver chart data...
Computing Atmospheric mass density...
Loading historical data...
Loading historical data...
Loading historical data...
Loading historical data...
Loading historical data...
Loading historical data...
Loading historical data...

Documentation

Showing up to 5 results
|